Terminal Aerodrome Forecast
Issued by NWS Cleveland, OH

Home | Current Version | Previous Version | Text Only | Print | Product List | Glossary Off
Versions: 1 2 3 4 5 6 7 8 9 10 11 12 13 14 15 16 17 18 19 20 21 22 23 24 25 26 27 28 29 30 31

526
FTUS41 KCLE 292340
TAFCLE
TAF
KCLE 292340Z 3000/0106 04014KT P6SM VCSH SCT020 OVC080
     FM300100 06012KT 5SM -SHRA BR BKN025
      TEMPO 3001/3005 08012G20KT 2SM RA OVC008
     FM300700 09012G20KT P6SM OVC008
     FM301500 08014G22KT P6SM BKN012 BKN025
     FM302200 09012KT P6SM -SHRA BKN030
     FM010400 13008KT 5SM BR BKN015=

USA.gov is the U.S. government's official web portal to all federal, state and local government web resources and services.